Location: Newark
(21.1200°N, 73.4000°E)
Time: 01:27:35
(UTC+00:00)

Explorer 11/Cluster Stage 4 - Pass Details

Date: 25 January 2020
Orbit: 467 x 1259 km, 28.8° (Epoch: 19 February)

Event Time Altitude Azimuth Distance (km) Brightness Sun altitude
Rises 15:43:56 0° 280° (W) 3,495 10.7 -39.8°
Reaches altitude 10° 15:47:09 10° 268° (W) 2,395 9.7 -40.5°
Enters shadow 15:49:01 17° 254° (WSW) 1,843 9.0 -40.9°
Maximum altitude 15:51:41 25° 214° (SW) 1,396 - -41.6°
Drops below altitude 10° 15:55:30 10° 158° (SSE) 1,982 - -42.4°
Sets 15:57:56 0° 144° (SE) 2,773 - -43.0°
